Vorticity
18 8 7 15 13 -13 24 32 11 11 -14 26 -7 -1 2 5 15 11 6 6 9 5 2 19 8 -6 -6 10 21 5 -2 37 6 22 -5 32 10 8 10 -13 -5 -4 8 -1 33 5 21 18 4 -3 -7 -8 4 5
11 8 22 16 0 13 5 -16 28 29 11 4 18 -0 1 2 5 18 11 3 -0 5 -13 6 -5 47 63 -25 34 -7 5 5 -18 -0 -32 -13 -24 -9 2 -5 17 14 14 -22 -19 -40 -25 -8 16 4 7 5 5 7
7 8 12 15 16 21 -2 20 -16 1 21 44 36 28 19 11 16 3 8 26 10 -1 4 36 -18 -40 22 57 -7 -12 -0 20 4 5 7 20 6 14 2 6 20 8 21 -8 21 13 9 -13 5 -1 9 6 7 7
7 8 7 9 14 21 13 15 15 29 -3 -17 -22 9 -16 27 25 12 -1 12 3 13 -1 32 40 43 -41 -25 -4 4 17 -7 14 21 15 11 9 7 -7 -9 -1 7 -0 1 -11 16 17 23 25 30 23 21 16 13
8 7 8 8 9 10 17 18 11 17 -2 5 11 7 2 32 7 38 31 12 22 19 -37 -11 5 -1 17 20 -11 14 5 19 18 4 14 9 -2 13 15 12 3 34 21 30 22 13 9 8 9 15 10 6 8 7
8 9 9 9 7 8 15 20 16 13 15 7 12 13 -1 1 6 -1 18 11 49 67 9 13 2 -19 -2 64 43 36 3 20 14 -8 5 7 2 22 28 -13 22 11 2 4 -3 8 6 6 9 16 10 6 8 8
7 8 9 10 11 8 9 11 9 9 9 4 15 7 2 26 8 -10 -0 9 -4 15 18 19 47 12 -4 -10 -7 9 13 -2 15 6 4 13 13 21 4 -8 0 10 9 11 18 19 16 10 17 17 16 15 12 11
9 8 9 9 9 10 10 7 16 14 11 7 1 6 10 -0 7 4 6 -8 18 32 33 4 -29 15 10 12 17 12 15 18 7 9 8 8 15 12 11 23 18 20 14 11 18 19 18 18 13 11 12 12 10 10
11 11 8 10 10 12 10 11 6 6 7 8 8 3 0 2 16 6 8 8 1 12 -4 -9 -1 13 54 27 18 21 13 20 26 8 17 33 2 -20 10 -2 6 5 4 6 10 14 13 11 9 11 10 11 10 9
11 10 13 11 14 11 11 11 9 7 11 6 6 8 5 16 3 8 7 28 49 32 17 10 52 36 34 22 3 22 20 30 -1 22 48 37 14 24 23 25 18 14 10 8 14 17 14 8 4 11 13 13 9 7
10 10 11 13 12 14 13 11 12 10 13 9 10 8 9 5 10 27 49 21 23 5 35 -3 20 21 4 23 24 26 6 10 26 31 1 4 14 14 26 23 19 23 21 17 13 14 17 20 11 8 8 9 9 6
6 6 5 7 9 12 12 11 13 13 13 14 15 16 17 29 56 36 18 27 -2 12 -17 -9 -1 16 26 34 53 39 27 14 -4 21 14 16 6 18 17 15 16 16 18 18 17 11 8 8 9 9 8 5 6 8
8 8 9 10 9 8 8 8 11 13 15 16 19 43 35 10 9 -8 9 -9 -23 -9 -15 -8 11 28 28 40 39 12 12 12 35 18 7 -2 12 16 18 15 16 15 13 12 9 11 11 9 6 5 8 11 10 6
8 8 9 11 10 11 11 11 12 16 23 26 28 21 7 6 -18 -27 9 -5 -25 -8 -10 2 35 23 14 59 14 9 14 12 10 10 -6 8 16 20 17 15 17 17 16 15 9 5 5 7 11 11 6 7 12 16
8 8 10 12 13 13 14 13 16 14 17 10 15 6 3 2 -2 -7 -1 -4 -1 -9 9 21 41 58 29 20 14 18 11 16 7 4 10 18 19 18 19 21 16 7 4 5 6 10 11 7 5 10 14 15 14 14
8 10 12 13 12 15 12 15 19 17 16 3 -16 -36 -19 -17 -5 -12 -15 1 15 7 15 17 48 33 44 16 19 4 6 6 3 19 21 18 15 12 10 6 5 6 9 11 8 5 5 11 14 14 13 13 15 16
8 14 14 14 14 20 2 12 28 6 24 8 -11 -15 9 11 7 9 9 11 12 3 15 40 20 28 12 14 8 13 -6 -6 2 10 14 11 7 8 7 7 10 10 7 5 7 12 14 14 12 14 14 15 17 20
12 15 11 12 9 15 9 10 -16 -18 15 -2 20 28 7 5 13 10 8 8 10 22 25 27 24 19 -37 0 12 7 14 7 10 13 13 9 7 9 10 10 6 5 7 12 14 13 11 12 12 13 17 20 16 15
11 10 11 11 23 6 -0 18 24 1 -7 -2 3 13 15 12 14 9 19 23 17 16 32 24 19 20 27 15 10 11 15 16 11 9 10 9 11 10 6 5 7 12 14 13 11 11 11 13 14 18 16 14 16 15
12 12 12 14 7 13 9 27 -5 12 25 6 12 2 15 20 21 18 17 21 23 22 39 14 10 6 -4 12 15 12 13 12 9 12 11 10 7 6 7 12 14 13 10 11 11 12 14 15 15 13 13 14 12 12
13 11 16 11 14 16 -3 13 -13 -1 -28 -10 20 18 8 23 12 11 18 16 22 15 30 19 17 11 16 19 15 11 11 12 12 12 7 5 7 12 14 12 10 11 12 12 11 12 14 14 14 13 13 12 14 13
13 14 13 17 14 7 17 8 -26 3 34 2 25 7 10 20 23 17 15 20 21 17 23 23 23 23 18 13 14 16 14 12 7 6 7 10 14 12 12 10 12 10 11 10 12 13 17 17 11 10 11 12 13 12
15 15 15 13 22 25 11 55 12 19 13 -4 3 5 7 20 18 29 25 18 17 25 25 24 20 18 15 17 16 12 7 6 7 12 14 12 10 9 10 10 11 11 12 13 15 18 19 12 7 7 10 11 15 14
29 31 25 33 7 -7 8 6 14 25 -1 16 16 17 18 14 18 18 7 21 18 25 21 19 18 17 15 11 7 6 7 11 14 12 9 9 9 10 11 11 12 14 15 19 20 17 17 9 6 8 5 10 13 13
17 25 6 2 17 40 33 13 7 11 6 12 19 13 4 14 11 10 2 10 26 25 22 18 14 13 8 6 5 12 13 12 9 9 10 13 12 12 12 12 14 15 19 19 17 15 14 9 7 8 8 6 10 12
7 25 17 11 14 22 9 2 9 15 28 24 22 22 19 19 32 4 8 30 25 20 15 13 8 5 5 11 12 12 9 9 10 12 11 12 11 12 11 12 12 14 16 15 14 13 13 14 12 11 10 9 11 12
28 -24 7 26 -1 -2 17 24 20 14 13 20 17 23 28 17 17 13 27 23 17 16 9 5 5 9 11 12 11 9 9 10 12 12 12 12 12 11 12 12 14 15 19 20 18 15 14 13 13 13 15 15 15 14
13 12 9 4 17 17 7 9 7 15 28 21 20 7 5 4 5 21 20 18 11 6 6 7 11 12 11 8 9 9 11 12 12 11 11 9 10 11 11 11 11 13 13 17 19 19 19 18 18 17 16 17 16 16
16 11 12 15 23 20 26 16 12 13 -2 12 9 12 8 18 34 16 14 7 7 6 11 13 11 9 8 9 10 12 12 12 10 11 12 10 11 11 12 12 12 13 11 9 10 11 12 12 13 14 15 15 14 13
11 15 26 19 16 12 12 7 10 21 27 21 19 24 30 36 17 11 8 6 11 13 11 9 8 11 10 12 11 13 13 11 11 10 11 12 12 13 13 15 13 12 12 12 13 13 13 13 12 11 11 11 12 12
20 24 21 12 12 20 18 26 29 30 30 26 18 14 14 19 5 9 13 12 12 9 10 10 11 10 11 12 12 12 11 11 9 11 12 13 14 11 12 10 10 9 8 7 7 8 7 8 8 9 10 11 12 11
21 16 20 19 21 26 24 18 11 12 12 12 10 11 7 15 12 13 11 11 10 11 10 10 11 13 13 13 13 13 12 10 11 12 13 12 10 10 10 9 8 8 8 9 9 7 6 9 10 11 12 13 12 11
23 26 27 25 26 13 13 14 7 6 8 8 12 10 10 8 14 13 13 12 10 9 10 12 13 13 12 13 13 11 10 11 12 12 11 10 8 8 8 8 8 9 9 9 9 7 7 7 9 10 10 11 13 13
Height
3142 3141 3139 3136 3134 3133 3130 3127 3125 3124 3123 3122 3122 3121 3121 3120 3119 3118 3116 3116 3113 3107 3106 3106 3105 3104 3100 3098 3097 3095 3092 3085 3082 3078 3075 3072 3066 3063 3058 3055 3051 3049 3046 3040 3037 3036 3025 3020 3020 3019 3014 3009 3006 3004
3137 3135 3132 3130 3128 3127 3126 3124 3121 3119 3117 3117 3116 3116 3115 3113 3112 3110 3108 3109 3106 3102 3098 3097 3096 3094 3091 3091 3090 3088 3085 3081 3077 3071 3068 3063 3060 3054 3050 3044 3042 3038 3036 3033 3031 3021 3018 3015 3013 3010 3006 3003 3001 2999
3131 3129 3127 3124 3122 3120 3119 3118 3116 3116 3113 3110 3110 3109 3109 3106 3104 3103 3102 3100 3097 3093 3088 3083 3087 3086 3083 3081 3083 3079 3076 3073 3069 3065 3059 3055 3050 3042 3038 3032 3029 3025 3025 3019 3017 3011 3011 3008 3005 3001 2997 2993 2991 2989
3127 3124 3122 3119 3117 3114 3113 3111 3110 3110 3109 3106 3105 3103 3100 3100 3097 3095 3093 3094 3093 3087 3077 3074 3075 3075 3074 3074 3072 3068 3065 3061 3058 3054 3049 3045 3041 3034 3024 3023 3017 3014 3012 3008 2999 2998 2998 2996 2991 2988 2986 2983 2981 2979
3122 3119 3117 3114 3111 3109 3107 3104 3103 3103 3102 3100 3099 3097 3095 3094 3091 3088 3088 3086 3084 3083 3069 3061 3061 3066 3066 3063 3061 3057 3054 3050 3046 3042 3037 3031 3027 3024 3014 3008 2998 2999 2997 2995 2987 2987 2987 2983 2981 2979 2976 2974 2971 2970
3116 3114 3111 3109 3106 3103 3101 3099 3097 3095 3094 3094 3093 3091 3090 3089 3084 3081 3073 3078 3074 3070 3064 3052 3043 3041 3050 3052 3044 3042 3040 3037 3034 3029 3022 3016 3013 3013 3002 2985 2987 2986 2984 2981 2978 2976 2975 2972 2970 2967 2967 2965 2962 2959
3109 3107 3105 3103 3101 3098 3096 3093 3091 3089 3089 3089 3087 3085 3083 3081 3078 3075 3072 3066 3061 3058 3054 3048 3036 3029 3030 3027 3028 3027 3026 3022 3018 3014 3004 3003 2999 2999 2984 2974 2975 2975 2972 2969 2966 2965 2962 2960 2958 2956 2955 2953 2952 2949
3102 3100 3098 3095 3093 3091 3089 3087 3085 3084 3083 3082 3080 3077 3075 3072 3069 3067 3066 3061 3056 3052 3047 3039 3026 3019 3019 3015 3015 3012 3011 3008 3001 2999 2990 2987 2987 2980 2965 2963 2964 2962 2959 2956 2953 2952 2951 2949 2948 2946 2945 2944 2941 2938
3094 3092 3090 3088 3086 3085 3084 3080 3078 3076 3075 3073 3071 3068 3066 3064 3061 3058 3053 3048 3043 3046 3036 3024 3017 3015 3007 3007 3005 3001 2997 2991 2989 2981 2978 2980 2967 2954 2952 2952 2953 2951 2948 2945 2942 2941 2940 2939 2937 2936 2935 2933 2930 2927
3086 3084 3082 3081 3080 3077 3074 3072 3069 3067 3065 3063 3062 3059 3054 3053 3049 3046 3037 3030 3024 3021 3016 3008 3009 3007 3007 3000 2994 2994 2986 2981 2974 2969 2968 2959 2945 2941 2940 2941 2941 2939 2937 2935 2933 2932 2930 2929 2928 2925 2923 2921 2918 2915
3078 3076 3074 3074 3071 3068 3067 3064 3061 3060 3057 3055 3051 3049 3046 3042 3038 3033 3028 3022 3018 3010 3002 3000 3001 2998 2992 2990 2986 2982 2974 2971 2964 2960 2958 2944 2931 2929 2929 2929 2928 2927 2926 2924 2923 2923 2922 2920 2918 2916 2914 2911 2907 2902
3070 3067 3067 3066 3063 3060 3057 3054 3050 3052 3050 3047 3044 3039 3036 3032 3026 3023 3016 3011 3007 3003 2999 2996 2994 2989 2982 2978 2974 2970 2966 2962 2954 2949 2944 2928 2921 2921 2921 2920 2918 2917 2916 2916 2916 2915 2914 2912 2910 2906 2902 2899 2895 2890
3060 3057 3057 3058 3055 3052 3050 3047 3044 3042 3039 3036 3035 3031 3026 3022 3016 3006 3000 2999 2997 2994 2993 2990 2984 2978 2972 2970 2966 2961 2955 2950 2943 2937 2926 2915 2915 2915 2914 2912 2912 2911 2911 2911 2911 2910 2908 2905 2902 2898 2894 2889 2884 2879
3049 3045 3047 3048 3044 3042 3039 3036 3034 3033 3030 3029 3027 3022 3016 3006 2999 2996 2996 2993 2990 2988 2985 2980 2973 2971 2963 2960 2957 2951 2944 2939 2932 2923 2914 2910 2909 2908 2908 2908 2908 2908 2908 2907 2905 2903 2901 2898 2894 2889 2883 2877 2870 2864
3038 3035 3038 3037 3033 3031 3028 3026 3024 3023 3024 3022 3017 3007 2996 2994 2990 2990 2988 2984 2982 2978 2974 2967 2962 2958 2954 2951 2945 2940 2934 2924 2917 2909 2907 2906 2906 2905 2905 2905 2905 2904 2903 2901 2899 2896 2893 2889 2884 2878 2872 2866 2858 2851
3025 3025 3028 3024 3021 3020 3018 3016 3014 3013 3010 3008 2998 2989 2987 2986 2985 2982 2980 2977 2974 2970 2963 2959 2952 2947 2940 2938 2932 2926 2920 2909 2906 2906 2905 2904 2903 2903 2902 2901 2901 2900 2897 2894 2891 2888 2883 2878 2873 2868 2862 2855 2847 2839
3013 3017 3014 3012 3010 3009 3006 3006 3002 3000 2996 2989 2981 2980 2978 2975 2971 2967 2966 2963 2960 2956 2952 2948 2943 2939 2932 2925 2919 2914 2907 2905 2904 2903 2902 2901 2900 2900 2898 2897 2895 2893 2890 2887 2883 2878 2873 2868 2863 2858 2853 2847 2838 2831
3003 3006 3003 3001 3000 2997 2994 2996 2993 2986 2979 2976 2972 2968 2966 2962 2958 2955 2952 2950 2947 2942 2937 2934 2930 2925 2920 2912 2907 2905 2903 2902 2901 2899 2898 2897 2896 2895 2893 2892 2890 2887 2883 2878 2874 2869 2864 2859 2855 2850 2843 2837 2830 2824
2992 2992 2992 2990 2990 2989 2983 2979 2977 2969 2965 2962 2957 2955 2951 2949 2946 2943 2939 2935 2932 2928 2925 2921 2919 2910 2906 2902 2900 2899 2899 2898 2898 2897 2895 2893 2892 2890 2888 2886 2883 2878 2874 2870 2867 2863 2857 2851 2845 2840 2834 2829 2823 2816
2980 2980 2980 2979 2979 2978 2969 2969 2965 2958 2952 2949 2945 2943 2941 2938 2935 2930 2926 2923 2919 2916 2914 2909 2904 2902 2900 2898 2896 2895 2895 2894 2894 2892 2891 2889 2887 2885 2883 2879 2876 2872 2868 2863 2858 2854 2850 2845 2840 2835 2830 2824 2819 2815
2967 2968 2968 2967 2966 2966 2961 2958 2949 2947 2944 2941 2935 2933 2930 2927 2923 2919 2915 2912 2909 2905 2901 2898 2896 2895 2894 2893 2892 2891 2890 2890 2889 2888 2887 2885 2883 2880 2877 2873 2870 2866 2862 2858 2854 2849 2844 2839 2835 2831 2826 2821 2817 2811
2953 2953 2953 2953 2953 2951 2947 2942 2938 2936 2934 2928 2924 2922 2918 2915 2912 2908 2905 2902 2897 2895 2893 2891 2890 2889 2888 2888 2887 2887 2887 2886 2886 2885 2883 2880 2877 2874 2871 2867 2863 2859 2855 2851 2846 2843 2838 2835 2832 2827 2823 2818 2813 2808
2941 2942 2940 2940 2941 2934 2932 2927 2927 2922 2922 2919 2916 2913 2908 2905 2903 2901 2897 2891 2889 2886 2885 2885 2884 2884 2885 2884 2885 2885 2884 2883 2882 2879 2877 2875 2872 2869 2866 2863 2859 2855 2849 2845 2841 2837 2834 2831 2827 2824 2820 2815 2811 2806
2931 2930 2929 2929 2925 2922 2918 2915 2913 2912 2911 2909 2906 2902 2900 2897 2894 2890 2886 2884 2882 2881 2880 2880 2881 2882 2882 2882 2882 2882 2881 2878 2877 2875 2873 2870 2867 2863 2859 2857 2854 2850 2846 2842 2837 2833 2830 2828 2825 2821 2817 2813 2808 2803
2924 2921 2918 2914 2912 2908 2905 2903 2901 2901 2900 2898 2897 2895 2891 2889 2886 2882 2879 2877 2876 2876 2877 2878 2879 2880 2880 2879 2879 2877 2876 2875 2873 2871 2868 2865 2862 2858 2854 2851 2849 2845 2840 2837 2834 2831 2828 2825 2822 2818 2813 2809 2805 2801
2909 2906 2904 2899 2897 2898 2897 2895 2894 2891 2890 2889 2888 2886 2883 2882 2879 2876 2872 2871 2872 2873 2875 2876 2877 2877 2877 2876 2875 2874 2873 2871 2869 2867 2865 2863 2860 2857 2853 2849 2844 2840 2836 2833 2831 2828 2825 2822 2818 2815 2811 2806 2802 2798
2896 2893 2889 2889 2888 2888 2887 2884 2884 2883 2882 2881 2879 2879 2878 2876 2872 2869 2869 2869 2871 2872 2874 2874 2875 2875 2874 2873 2872 2871 2870 2868 2866 2864 2862 2860 2857 2854 2851 2848 2843 2839 2835 2831 2828 2824 2821 2818 2815 2811 2808 2803 2798 2794
2881 2879 2881 2881 2881 2879 2877 2876 2876 2876 2874 2872 2872 2872 2871 2869 2868 2868 2868 2869 2870 2871 2872 2872 2872 2872 2871 2870 2869 2868 2866 2865 2863 2861 2859 2857 2853 2851 2847 2844 2841 2837 2833 2829 2826 2822 2819 2816 2812 2808 2804 2800 2796 2792
2871 2871 2872 2870 2870 2869 2868 2869 2868 2868 2867 2867 2867 2866 2865 2865 2866 2866 2867 2869 2870 2870 2870 2870 2870 2870 2868 2867 2866 2865 2864 2862 2860 2857 2855 2853 2851 2849 2846 2843 2840 2836 2833 2828 2825 2821 2818 2814 2811 2807 2803 2799 2795 2790
2862 2862 2862 2861 2862 2862 2862 2862 2862 2862 2861 2862 2862 2861 2862 2862 2864 2866 2867 2868 2868 2869 2869 2868 2868 2866 2866 2865 2864 2862 2861 2859 2858 2856 2854 2852 2850 2847 2845 2842 2839 2836 2833 2829 2826 2822 2819 2815 2812 2808 2804 2800 2796 2792
2855 2855 2855 2855 2856 2856 2857 2858 2858 2858 2859 2859 2859 2862 2863 2863 2865 2866 2867 2867 2868 2868 2868 2867 2867 2866 2865 2864 2862 2860 2859 2857 2855 2854 2852 2850 2848 2846 2844 2842 2839 2836 2833 2829 2826 2823 2819 2816 2812 2808 2803 2799 2795 2791
2850 2850 2851 2851 2852 2853 2855 2856 2857 2858 2859 2860 2861 2863 2864 2864 2866 2867 2867 2867 2866 2866 2866 2866 2865 2864 2862 2861 2859 2858 2856 2855 2853 2852 2850 2848 2846 2844 2843 2840 2837 2834 2831 2828 2825 2822 2818 2815 2810 2806 2802 2798 2794 2790
2846 2846 2847 2848 2850 2852 2855 2858 2859 2860 2861 2861 2862 2863 2864 2865 2865 2866 2866 2866 2866 2866 2865 2864 2863 2862 2860 2858 2857 2856 2854 2853 2851 2849 2848 2846 2844 2842 2839 2837 2834 2831 2829 2826 2823 2820 2816 2812 2808 2805 2801 2797 2793 2788